When you browse on this site, cookies collect data to enhance your experience and personalize the content and advertising you see.
Visit our Privacy Policy to learn more. By continuing to use the site, you agree to this use of cookies and data.
  • Em Portugal
  • Lista de países
  • Para 7 dias
  • Temperatura da água
  • Mapas de satélite
  • Mapa do tempo
  • Widgets de tempo
  • user-avatar
    Iniciar Sessão

    Previsão horária em Dvor-Susha

    Hoje, 20 Novembro, Terça-feira

    Tempo Temperatura Precipitação Vento Pressão Humidade
    00:00 -2°C° 0 mm 3 m/s 762 mmHg 93%
    01:00 -2°C° 0 mm 2 m/s 762 mmHg 93%
    02:00 -3°C° 0 mm 2 m/s 762 mmHg 94%
    03:00 -3°C° 0 mm 2 m/s 762 mmHg 94%
    04:00 -4°C° 0 mm 2 m/s 761 mmHg 95%
    05:00 -4°C° 0 mm 2 m/s 761 mmHg 95%
    06:00 -4°C° 0 mm 2 m/s 761 mmHg 95%
    07:00 -4°C° 0 mm 2 m/s 761 mmHg 95%
    08:00 -5°C° 0 mm 2 m/s 761 mmHg 94%
    09:00 -2°C° 0 mm 1 m/s 761 mmHg 91%
    10:00 -1°C° 0 mm 1 m/s 761 mmHg 88%
    11:00 -1°C° 0 mm 1 m/s 761 mmHg 85%
    12:00 0°C° 0 mm 1 m/s 761 mmHg 84%
    13:00 0°C° 0 mm 1 m/s 760 mmHg 83%
    14:00 0°C° 0 mm 1 m/s 760 mmHg 82%
    15:00 -1°C° 0 mm 1 m/s 760 mmHg 84%
    16:00 -1°C° 0 mm 1 m/s 760 mmHg 87%
    17:00 -2°C° 0 mm 1 m/s 760 mmHg 89%
    18:00 -2°C° 0 mm 1 m/s 760 mmHg 90%
    19:00 -2°C° 0 mm 1 m/s 760 mmHg 90%
    20:00 -3°C° 0 mm 1 m/s 760 mmHg 91%
    21:00 -3°C° 0 mm 1 m/s 760 mmHg 90%
    22:00 -3°C° 0 mm 1 m/s 759 mmHg 90%
    23:00 -3°C° 0 mm 1 m/s 759 mmHg 90%

    Amanhã, 21 Novembro, Quarta-feira

    Tempo Temperatura Precipitação Vento Pressão Humidade
    00:00 -3°C° 0 mm 1 m/s 759 mmHg 89%
    01:00 -3°C° 0 mm 1 m/s 759 mmHg 88%
    02:00 -3°C° 0 mm 1 m/s 759 mmHg 87%
    03:00 -3°C° 0 mm 1 m/s 759 mmHg 86%
    04:00 -3°C° 0 mm 1 m/s 759 mmHg 86%
    05:00 -3°C° 0 mm 1 m/s 759 mmHg 85%
    06:00 -4°C° 0 mm 2 m/s 759 mmHg 85%
    07:00 -4°C° 0 mm 2 m/s 759 mmHg 86%
    08:00 -4°C° 0 mm 2 m/s 759 mmHg 86%
    09:00 -3°C° 0 mm 2 m/s 759 mmHg 86%
    10:00 -2°C° 0 mm 2 m/s 759 mmHg 85%
    11:00 -1°C° 0 mm 2 m/s 759 mmHg 85%
    12:00 -1°C° 0 mm 2 m/s 759 mmHg 84%
    13:00 -1°C° 0 mm 2 m/s 759 mmHg 83%
    14:00 -1°C° 0 mm 2 m/s 759 mmHg 82%
    15:00 -1°C° 0 mm 2 m/s 759 mmHg 82%
    16:00 -1°C° 0 mm 2 m/s 759 mmHg 82%
    17:00 -1°C° 0 mm 2 m/s 759 mmHg 83%
    18:00 -2°C° 0 mm 2 m/s 759 mmHg 84%
    19:00 -2°C° 0 mm 2 m/s 759 mmHg 85%
    20:00 -1°C° 0 mm 1 m/s 759 mmHg 86%
    21:00 -1°C° 0 mm 1 m/s 759 mmHg 88%
    22:00 -2°C° 0 mm 1 m/s 759 mmHg 91%
    23:00 -2°C° 0 mm 1 m/s 759 mmHg 93%

    Depois de amanhã, 22 Novembro, Quinta-feira

    Tempo Temperatura Precipitação Vento Pressão Humidade
    00:00 -2°C° 0 mm 1 m/s 759 mmHg 93%
    01:00 -4°C° 0 mm 2 m/s 759 mmHg 94%
    02:00 -4°C° 0 mm 2 m/s 759 mmHg 95%
    03:00 -4°C° 0 mm 2 m/s 759 mmHg 95%
    04:00 -4°C° 0 mm 2 m/s 759 mmHg 95%
    05:00 -5°C° 0 mm 2 m/s 759 mmHg 96%
    06:00 -5°C° 0 mm 2 m/s 759 mmHg 96%
    07:00 -5°C° 0 mm 2 m/s 758 mmHg 96%
    08:00 -5°C° 0 mm 2 m/s 758 mmHg 96%
    09:00 -5°C° 0 mm 3 m/s 758 mmHg 92%
    10:00 -4°C° 0 mm 3 m/s 758 mmHg 88%
    11:00 -2°C° 0 mm 3 m/s 758 mmHg 85%
    12:00 -2°C° 0 mm 3 m/s 758 mmHg 83%
    13:00 -3°C° 0 mm 4 m/s 757 mmHg 81%
    14:00 -2°C° 0 mm 4 m/s 757 mmHg 79%
    15:00 -3°C° 0 mm 4 m/s 757 mmHg 82%
    16:00 -4°C° 0 mm 4 m/s 757 mmHg 84%
    17:00 -4°C° 0 mm 4 m/s 757 mmHg 87%
    18:00 -4°C° 0 mm 4 m/s 757 mmHg 88%
    19:00 -4°C° 0 mm 4 m/s 757 mmHg 89%
    20:00 -4°C° 0 mm 4 m/s 757 mmHg 91%
    21:00 -3°C° 0 mm 4 m/s 757 mmHg 90%
    22:00 -3°C° 0 mm 4 m/s 757 mmHg 89%
    23:00 -2°C° 0 mm 3 m/s 757 mmHg 88%

    23 Novembro, Sexta-feira

    Tempo Temperatura Precipitação Vento Pressão Humidade
    00:00 -2°C° 0 mm 3 m/s 758 mmHg 88%
    01:00 -2°C° 0 mm 2 m/s 758 mmHg 89%
    02:00 -2°C° 0 mm 2 m/s 758 mmHg 90%
    03:00 -2°C° 0 mm 2 m/s 758 mmHg 91%
    04:00 -2°C° 0 mm 2 m/s 759 mmHg 92%
    05:00 -2°C° 0 mm 2 m/s 759 mmHg 92%
    06:00 -2°C° 0 mm 2 m/s 759 mmHg 93%
    07:00 0°C° 0 mm 1 m/s 759 mmHg 94%
    08:00 0°C° 0 mm 1 m/s 760 mmHg 95%
    09:00 +1°C° 0 mm 1 m/s 760 mmHg 93%
    10:00 +1°C° 0 mm 1 m/s 760 mmHg 91%
    11:00 +1°C° 0 mm 1 m/s 760 mmHg 89%
    12:00 +1°C° 0 mm 1 m/s 760 mmHg 88%
    13:00 -1°C° 0 mm 2 m/s 760 mmHg 86%
    14:00 +1°C° 0 mm 2 m/s 760 mmHg 85%
    15:00 -1°C° 0 mm 2 m/s 760 mmHg 85%
    16:00 -1°C° 0 mm 2 m/s 760 mmHg 86%
    17:00 -1°C° 0 mm 2 m/s 760 mmHg 87%
    18:00 -2°C° 0 mm 2 m/s 759 mmHg 87%
    19:00 -2°C° 0 mm 2 m/s 759 mmHg 87%
    20:00 -2°C° 0 mm 3 m/s 759 mmHg 87%
    21:00 -4°C° 0 mm 3 m/s 758 mmHg 88%
    22:00 -4°C° 0 mm 3 m/s 758 mmHg 90%
    23:00 -4°C° 0 mm 3 m/s 758 mmHg 91%

    24 Novembro, Sábado

    Tempo Temperatura Precipitação Vento Pressão Humidade
    00:00 -5°C° 0 mm 3 m/s 757 mmHg 91%
    01:00 -5°C° 0 mm 3 m/s 757 mmHg 91%
    02:00 -5°C° 0 mm 3 m/s 757 mmHg 91%
    03:00 -5°C° 0 mm 3 m/s 756 mmHg 91%
    04:00 -5°C° 0 mm 3 m/s 756 mmHg 90%
    05:00 -6°C° 0 mm 3 m/s 755 mmHg 90%
    06:00 -6°C° 0 mm 3 m/s 755 mmHg 89%
    07:00 -6°C° 0 mm 3 m/s 755 mmHg 88%
    08:00 -6°C° 0 mm 3 m/s 754 mmHg 88%
    09:00 -5°C° 0 mm 3 m/s 754 mmHg 85%
    10:00 -5°C° 0 mm 3 m/s 754 mmHg 81%
    11:00 -4°C° 0 mm 3 m/s 754 mmHg 78%
    12:00 -4°C° 0 mm 3 m/s 753 mmHg 78%
    13:00 -3°C° 0 mm 2 m/s 753 mmHg 77%
    14:00 -2°C° 0 mm 2 m/s 753 mmHg 77%
    15:00 -3°C° 0 mm 2 m/s 753 mmHg 79%
    16:00 -3°C° 0 mm 2 m/s 752 mmHg 81%
    17:00 -2°C° 0 mm 1 m/s 752 mmHg 84%
    18:00 -2°C° 0 mm 1 m/s 752 mmHg 84%
    19:00 -2°C° 0 mm 1 m/s 752 mmHg 84%
    20:00 -2°C° 0 mm 1 m/s 752 mmHg 84%
    21:00 -2°C° 0 mm 1 m/s 752 mmHg 84%
    22:00 -2°C° 0 mm 1 m/s 752 mmHg 84%
    23:00 -2°C° 0 mm 1 m/s 752 mmHg 85%

    25 Novembro, Domingo

    Tempo Temperatura Precipitação Vento Pressão Humidade
    00:00 -2°C° 0 mm 1 m/s 752 mmHg 85%
    01:00 -2°C° 0 mm 1 m/s 752 mmHg 86%
    02:00 -2°C° 0 mm 1 m/s 752 mmHg 87%
    03:00 -2°C° 0 mm 1 m/s 751 mmHg 88%
    04:00 -3°C° 0 mm 0 m/s 751 mmHg 90%
    05:00 -3°C° 0 mm 0 m/s 751 mmHg 91%
    06:00 -4°C° 0 mm 0 m/s 751 mmHg 91%
    07:00 -4°C° 0 mm 0 m/s 751 mmHg 92%
    08:00 -4°C° 0 mm 0 m/s 751 mmHg 92%
    09:00 -3°C° 0 mm 0 m/s 752 mmHg 90%
    10:00 -1°C° 0 mm 1 m/s 752 mmHg 89%
    11:00 -1°C° 0 mm 1 m/s 752 mmHg 87%
    12:00 -1°C° 0 mm 1 m/s 751 mmHg 87%
    13:00 0°C° 0 mm 1 m/s 751 mmHg 88%
    14:00 0°C° 0 mm 1 m/s 751 mmHg 88%
    15:00 -3°C° 0 mm 2 m/s 751 mmHg 89%
    16:00 -3°C° 0 mm 2 m/s 751 mmHg 90%
    17:00 -3°C° 0 mm 2 m/s 751 mmHg 92%
    18:00 -3°C° 0 mm 2 m/s 750 mmHg 91%
    19:00 -4°C° 0 mm 2 m/s 750 mmHg 90%
    20:00 -4°C° 0 mm 2 m/s 750 mmHg 89%
    21:00 -4°C° 0 mm 2 m/s 750 mmHg 88%
    22:00 -4°C° 0 mm 2 m/s 750 mmHg 88%
    23:00 -4°C° 0 mm 2 m/s 750 mmHg 87%
    Mostrar mais